Printer-friendly version

IAU Minor Planet Center

Minor Planet Center

MPEC 2007-V81 : 2007 VZ137

The following Minor Planet Electronic Circular may be linked-to from your own Web pages, but must not otherwise be redistributed electronically.


Read MPEC 2007-V80 Read MPEC 2007-V82


M.P.E.C. 2007-V81                                Issued 2007 Nov. 13, 00:27 UT

     The Minor Planet Electronic Circulars contain information on unusual
         minor planets and routine data on comets.  They are published
   on behalf of Commission 20 of the International Astronomical Union by the
          Minor Planet Center, Smithsonian Astrophysical Observatory,
                          Cambridge, MA 02138, U.S.A.

             Prepared using the Tamkin Foundation Computer Network

                              MPC@CFA.HARVARD.EDU
          URL http://www.cfa.harvard.edu/iau/mpc.html  ISSN 1523-6714

                                  2007 VZ137

Observations:
     K07VD7Z* C2007 11 09.26685 02 36 16.21 +15 47 47.7          20.5 V EV081G96
     K07VD7Z  C2007 11 09.27902 02 36 14.69 +15 47 34.9          20.8 V EV081G96
     K07VD7Z  C2007 11 09.28506 02 36 13.93 +15 47 28.4          20.4 V EV081G96
     K07VD7Z  C2007 11 09.35382 02 36 05.54 +15 46 15.3          21.2 V EV081G96
     K07VD7Z  C2007 11 09.35704 02 36 05.14 +15 46 12.0          21.0 V EV081G96
     K07VD7Z  C2007 11 09.36027 02 36 04.75 +15 46 08.6          21.4 V EV081G96
     K07VD7Z  C2007 11 09.36337 02 36 04.35 +15 46 05.3          21.0 V EV081G96
     K07VD7Z  C2007 11 10.16115502 34 34.35 +15 32 11.9          21.7 V EV081H55
     K07VD7Z  C2007 11 10.17019002 34 33.30 +15 32 02.4          21.5 V EV081H55
     K07VD7Z  C2007 11 10.17878202 34 32.26 +15 31 53.1          21.7 V EV081H55
     K07VD7Z  C2007 11 10.27227 02 34 21.71 +15 30 19.8          21.2 V EV081G96
     K07VD7Z  C2007 11 10.27292 02 34 21.63 +15 30 19.5          21.5 V EV081G96
     K07VD7Z  C2007 11 10.27356 02 34 21.56 +15 30 18.5          21.8 V EV081G96
     K07VD7Z  C2007 11 10.27421 02 34 21.51 +15 30 18.0          21.6 V EV081G96
     K07VD7Z  C2007 11 10.30980 02 34 17.29 +15 29 41.4          21.1 V EV081G96
     K07VD7Z  C2007 11 10.31080 02 34 17.18 +15 29 40.7          21.0 V EV081G96
     K07VD7Z  C2007 11 10.31181 02 34 17.07 +15 29 39.5          21.3 V EV081G96
     K07VD7Z  C2007 11 10.31280 02 34 16.96 +15 29 38.5          20.8 V EV081G96
     K07VD7Z  C2007 11 11.29676 02 32 30.46 +15 13 12.2          20.9 V EV081G96
     K07VD7Z  C2007 11 11.30429 02 32 29.58 +15 13 04.8                 EV081G96
     K07VD7Z  C2007 11 11.31168 02 32 28.74 +15 12 57.0          21.5 V EV081G96
     K07VD7Z  C2007 11 11.31917 02 32 27.92 +15 12 50.6          20.7 V EV081G96
     K07VD7Z  C2007 11 12.23204 02 30 54.14 +14 58 09.1          20.9 V EV081G96
     K07VD7Z  C2007 11 12.23295 02 30 53.96 +14 58 07.9          22.2 V EV081G96
     K07VD7Z  C2007 11 12.24072 02 30 53.24 +14 58 01.6          21.6 V EV081G96
     K07VD7Z  C2007 11 12.24160 02 30 53.13 +14 58 00.5          21.4 V EV081G96
     K07VD7Z  C2007 11 12.24936 02 30 52.27 +14 57 53.4          21.4 V EV081G96
     K07VD7Z  C2007 11 12.25028 02 30 52.16 +14 57 51.8          21.6 V EV081G96
     K07VD7Z  C2007 11 12.25808 02 30 51.37 +14 57 45.0          21.1 V EV081G96
     K07VD7Z  C2007 11 12.25896 02 30 51.30 +14 57 43.9          21.7 V EV081G96
     K07VD7Z  C2007 11 12.27373 02 30 49.69 +14 57 29.9          21.5 V EV081G96
     K07VD7Z  C2007 11 12.28723 02 30 48.22 +14 57 17.1          21.2 V EV081G96
     K07VD7Z  C2007 11 12.29403 02 30 47.50 +14 57 10.8          20.9 V EV081G96

Observer details:
G96 Mt. Lemmon Survey.  Observers R. E. Hill, R. A. Kowalski.  Measurers
    E. C. Beshore, A. Boattini, G. J. Garradd, A. R. Gibbs, A. D. Grauer,
    R. E. Hill, R. A. Kowalski, S. M. Larson, R. H. McNaught.  1.5-m reflector
    + CCD.
H55 Astronomical Research Observatory, Charleston.  Observer R. Holmes.
    0.61-m f/4.0 astrograph + CCD.

Orbital elements:
2007 VZ137                                          PHA, Earth MOID = 0.0242 AU
Epoch 2007 Oct. 27.0 TT = JDT 2454400.5                 MPC
M  38.05307              (2000.0)            P               Q
n   0.43666270     Peri.   63.38062     +0.33808302     +0.93871353
a   1.7207006      Node   226.54928     -0.89303326     +0.29745665
e   0.5913399      Incl.    5.31182     -0.29697048     +0.17417362
P   2.26           H   21.4           G   0.15           U   9
Residuals in seconds of arc
071109 G96  0.4+  0.3-    071110 G96  0.1-  0.3+    071112 G96  0.1+  0.3-
071109 G96  0.0   0.2-    071110 G96  0.0   0.0     071112 G96  1.1-  0.6-
071109 G96  0.2-  0.3-    071110 G96  0.4+  0.1+    071112 G96  0.5+  0.4+
071109 G96  0.2+  0.1-    071110 G96  0.2-  0.0     071112 G96  0.3+  0.1+
071109 G96  0.1+  0.0     071110 G96  0.1-  0.3+    071112 G96  0.1-  0.3+
071109 G96  0.2+  0.1+    071110 G96  0.0   0.2+    071112 G96  0.3-  0.4-
071109 G96  0.2-  0.1+    071110 G96  0.1+  0.2+    071112 G96  0.3+  0.2+
071110 H55  0.2-  0.3+    071111 G96  0.4+  0.1+    071112 G96  0.7+  0.1-
071110 H55  0.1-  0.1+    071111 G96  0.1-  0.1+    071112 G96  0.2+  0.1-
071110 H55  0.5-  0.5-    071111 G96  0.3-  0.4-    071112 G96  0.2-  0.1-
071110 G96  0.0   0.0     071111 G96  0.1-  0.6+    071112 G96  0.1-  0.0

Ephemeris:
2007 VZ137               a,e,i = 1.72, 0.59, 5                   q = 0.7032
Date    TT    R. A. (2000) Decl.     Delta      r     Elong.  Phase     V
2007 11 06    02 43.09   +16 49.2    0.469    1.460   178.9     0.7    20.7
2007 11 08    02 38.80   +16 10.8    0.487    1.478   177.2     1.9    20.9
2007 11 10    02 34.87   +15 35.1    0.507    1.495   174.2     3.9    21.2
2007 11 12    02 31.29   +15 01.9    0.527    1.513   171.2     5.8    21.4
2007 11 14    02 28.06   +14 31.3    0.548    1.530   168.3     7.6    21.6
2007 11 16    02 25.15   +14 03.3    0.570    1.547   165.4     9.3    21.7
2007 11 18    02 22.56   +13 37.6    0.592    1.564   162.7    10.9    21.9
2007 11 20    02 20.26   +13 14.4    0.616    1.581   160.0    12.3    22.1
2007 11 22    02 18.26   +12 53.4    0.640    1.597   157.4    13.7    22.2
2007 11 24    02 16.52   +12 34.6    0.665    1.614   154.9    15.1    22.4
2007 11 26    02 15.04   +12 17.8    0.690    1.630   152.4    16.3    22.5

Gareth V. Williams           (C) Copyright 2007 MPC           M.P.E.C. 2007-V81

Read MPEC 2007-V80 Read MPEC 2007-V82


Our Web policy. Index to the CBAT/MPC/ICQ pages.


Valid HTML 4.01!